Location: Burland Observatory
(39.4088°N, 105.4217°W)
Time: 09:31:53
(UTC-07:00)

Vanguard 3 - Pass Details

Date: 14 December 2019
Orbit: 507 x 3263 km, 33.4° (Epoch: 24 January)

Event Time Altitude Azimuth Distance (km) Brightness Sun altitude
Rises 04:50:16 0° 194° (SSW) 2,888 - -26.9°
Exits shadow 04:50:47 - 190° (S) 2,753 9.9 -26.8°
Reaches altitude 10° 04:53:36 10° 164° (SSE) 2,279 9.7 -26.2°
Maximum altitude 04:55:57 13° 137° (SE) 2,320 10.1 -25.8°
Drops below altitude 10° 04:58:46 10° 111° (ESE) 2,844 10.9 -25.2°
Sets 05:04:06 0° 87° (E) 4,448 12.2 -24.2°
